#datetime,building,power
2022-05-13T00:00:00,pth,1.20
2022-05-13T00:02:00,pth,2.40
2022-05-13T00:03:00,pth,1.20
2022-05-13T00:05:00,pth,2.40
2022-05-13T00:07:00,pth,2.40
2022-05-13T00:09:00,pth,3.60
2022-05-13T00:11:00,pth,2.40
2022-05-13T00:13:00,pth,2.40
2022-05-13T00:15:00,pth,2.40
2022-05-13T00:16:00,pth,1.20
2022-05-13T00:18:00,pth,2.40
2022-05-13T00:19:00,pth,1.20
2022-05-13T00:21:00,pth,2.40
2022-05-13T00:23:00,pth,2.40
2022-05-13T00:25:00,pth,2.40
2022-05-13T00:27:00,pth,2.40
2022-05-13T00:28:00,pth,1.20
2022-05-13T00:30:00,pth,2.40
2022-05-13T00:32:00,pth,2.40
2022-05-13T00:33:00,pth,1.20
2022-05-13T00:35:00,pth,2.40
2022-05-13T00:36:00,pth,1.20
2022-05-13T00:38:00,pth,2.40
2022-05-13T00:40:00,pth,2.40
2022-05-13T00:41:00,pth,1.20
2022-05-13T00:43:00,pth,2.40
2022-05-13T00:45:00,pth,2.40
2022-05-13T00:47:00,pth,1.20
2022-05-13T00:48:00,pth,1.20
2022-05-13T00:50:00,pth,2.40
2022-05-13T00:52:00,pth,2.40
2022-05-13T00:54:00,pth,2.40
2022-05-13T00:55:00,pth,1.20
2022-05-13T00:57:00,pth,2.40
2022-05-13T00:58:00,pth,2.40
2022-05-13T01:00:00,pth,2.40
2022-05-13T01:02:00,pth,3.60
2022-05-13T01:03:00,pth,1.20
2022-05-13T01:05:00,pth,2.40
2022-05-13T01:07:00,pth,2.40
2022-05-13T01:09:00,pth,2.40
2022-05-13T01:11:00,pth,2.40
2022-05-13T01:13:00,pth,2.40
2022-05-13T01:15:00,pth,2.40
2022-05-13T01:17:00,pth,2.40
2022-05-13T01:18:00,pth,1.20
2022-05-13T01:20:00,pth,2.40
2022-05-13T01:22:00,pth,2.40
2022-05-13T01:23:00,pth,1.20
2022-05-13T01:25:00,pth,2.40
2022-05-13T01:27:00,pth,2.40
2022-05-13T01:29:00,pth,2.40
2022-05-13T01:31:00,pth,2.40
2022-05-13T01:33:00,pth,2.40
2022-05-13T01:35:00,pth,2.40
2022-05-13T01:37:00,pth,2.40
2022-05-13T01:39:00,pth,2.40
2022-05-13T01:41:00,pth,1.20
2022-05-13T01:43:00,pth,2.40
2022-05-13T01:45:00,pth,2.40
2022-05-13T01:47:00,pth,2.40
2022-05-13T01:49:00,pth,2.40
2022-05-13T01:51:00,pth,1.20
2022-05-13T01:53:00,pth,2.40
2022-05-13T01:54:00,pth,1.20
2022-05-13T01:56:00,pth,2.40
2022-05-13T01:58:00,pth,1.20
2022-05-13T02:00:00,pth,2.40
2022-05-13T02:02:00,pth,2.40
2022-05-13T02:04:00,pth,2.40
2022-05-13T02:05:00,pth,1.20
2022-05-13T02:07:00,pth,2.40
2022-05-13T02:08:00,pth,1.20
2022-05-13T02:09:00,pth,1.20
2022-05-13T02:11:00,pth,2.40
2022-05-13T02:13:00,pth,2.40
2022-05-13T02:15:00,pth,2.40
2022-05-13T02:17:00,pth,2.40
2022-05-13T02:19:00,pth,2.40
2022-05-13T02:20:00,pth,1.20
2022-05-13T02:22:00,pth,2.40
2022-05-13T02:24:00,pth,2.40
2022-05-13T02:26:00,pth,2.40
2022-05-13T02:28:00,pth,3.60
2022-05-13T02:30:00,pth,2.40
2022-05-13T02:31:00,pth,1.20
2022-05-13T02:33:00,pth,2.40
2022-05-13T02:34:00,pth,1.20
2022-05-13T02:36:00,pth,3.60
2022-05-13T02:37:00,pth,1.20
2022-05-13T02:39:00,pth,2.40
2022-05-13T02:41:00,pth,3.60
2022-05-13T02:43:00,pth,2.40
2022-05-13T02:44:00,pth,1.20
2022-05-13T02:46:00,pth,3.60
2022-05-13T02:48:00,pth,2.40
2022-05-13T02:50:00,pth,2.40
2022-05-13T02:51:00,pth,2.40
2022-05-13T02:52:00,pth,1.20
2022-05-13T02:54:00,pth,2.40
2022-05-13T02:56:00,pth,2.40
2022-05-13T02:58:00,pth,2.40
2022-05-13T02:59:00,pth,2.40
2022-05-13T03:00:00,pth,1.20
2022-05-13T03:02:00,pth,2.40
2022-05-13T03:04:00,pth,2.40
2022-05-13T03:05:00,pth,2.40
2022-05-13T03:07:00,pth,2.40
2022-05-13T03:08:00,pth,1.20
2022-05-13T03:09:00,pth,1.20
2022-05-13T03:11:00,pth,2.40
2022-05-13T03:12:00,pth,1.20
2022-05-13T03:14:00,pth,2.40
2022-05-13T03:16:00,pth,2.40
2022-05-13T03:18:00,pth,2.40
2022-05-13T03:20:00,pth,2.40
2022-05-13T03:22:00,pth,2.40
2022-05-13T03:24:00,pth,1.20
2022-05-13T03:25:00,pth,1.20
2022-05-13T03:27:00,pth,2.40
2022-05-13T03:29:00,pth,2.40
2022-05-13T03:31:00,pth,2.40
2022-05-13T03:32:00,pth,1.20
2022-05-13T03:33:00,pth,1.20
2022-05-13T03:35:00,pth,2.40
2022-05-13T03:36:00,pth,1.20
2022-05-13T03:38:00,pth,2.40
2022-05-13T03:40:00,pth,2.40
2022-05-13T03:42:00,pth,1.20
2022-05-13T03:44:00,pth,2.40
2022-05-13T03:45:00,pth,1.20
2022-05-13T03:47:00,pth,2.40
2022-05-13T03:49:00,pth,2.40
2022-05-13T03:51:00,pth,2.40
2022-05-13T03:53:00,pth,2.40
2022-05-13T03:55:00,pth,2.40
2022-05-13T03:57:00,pth,1.20
2022-05-13T03:59:00,pth,2.40
2022-05-13T04:01:00,pth,2.40
2022-05-13T04:03:00,pth,1.20
2022-05-13T04:05:00,pth,2.40
2022-05-13T04:06:00,pth,1.20
2022-05-13T04:08:00,pth,2.40
2022-05-13T04:10:00,pth,2.40
2022-05-13T04:11:00,pth,1.20
2022-05-13T04:13:00,pth,2.40
2022-05-13T04:15:00,pth,2.40
2022-05-13T04:17:00,pth,2.40
2022-05-13T04:19:00,pth,1.20
2022-05-13T04:20:00,pth,1.20
2022-05-13T04:22:00,pth,3.60
2022-05-13T04:24:00,pth,2.40
2022-05-13T04:26:00,pth,2.40
2022-05-13T04:27:00,pth,1.20
2022-05-13T04:29:00,pth,2.40
2022-05-13T04:30:00,pth,1.20
2022-05-13T04:32:00,pth,2.40
2022-05-13T04:33:00,pth,1.20
2022-05-13T04:34:00,pth,1.20
2022-05-13T04:36:00,pth,2.40
2022-05-13T04:38:00,pth,2.40
2022-05-13T04:40:00,pth,2.40
2022-05-13T04:42:00,pth,2.40
2022-05-13T04:45:00,pth,2.40
2022-05-13T04:46:00,pth,1.20
2022-05-13T04:48:00,pth,2.40
2022-05-13T04:50:00,pth,2.40
2022-05-13T04:52:00,pth,1.20
2022-05-13T04:54:00,pth,2.40
2022-05-13T04:56:00,pth,2.40
2022-05-13T04:58:00,pth,1.20
2022-05-13T05:00:00,pth,2.40
2022-05-13T05:02:00,pth,2.40
2022-05-13T05:03:00,pth,1.20
2022-05-13T05:05:00,pth,2.40
2022-05-13T05:07:00,pth,1.20
2022-05-13T05:09:00,pth,2.40
2022-05-13T05:10:00,pth,1.20
2022-05-13T05:11:00,pth,1.20
2022-05-13T05:12:00,pth,1.20
2022-05-13T05:14:00,pth,2.40
2022-05-13T05:16:00,pth,1.20
2022-05-13T05:17:00,pth,1.20
2022-05-13T05:19:00,pth,2.40
2022-05-13T05:22:00,pth,2.40
2022-05-13T05:24:00,pth,2.40
2022-05-13T05:26:00,pth,1.20
2022-05-13T05:28:00,pth,2.40
2022-05-13T05:30:00,pth,2.40
2022-05-13T05:31:00,pth,1.20
2022-05-13T05:33:00,pth,1.20
2022-05-13T05:35:00,pth,2.40
2022-05-13T05:37:00,pth,1.20
2022-05-13T05:38:00,pth,1.20
2022-05-13T05:40:00,pth,2.40
2022-05-13T05:41:00,pth,1.20
2022-05-13T05:43:00,pth,2.40
2022-05-13T05:45:00,pth,2.40
2022-05-13T05:47:00,pth,2.40
2022-05-13T05:49:00,pth,2.40
2022-05-13T05:51:00,pth,1.20
2022-05-13T05:52:00,pth,1.20
2022-05-13T05:53:00,pth,1.20
2022-05-13T05:55:00,pth,2.40
2022-05-13T05:57:00,pth,1.20
2022-05-13T05:58:00,pth,1.20
2022-05-13T06:00:00,pth,2.40
2022-05-13T06:01:00,pth,1.20
2022-05-13T06:03:00,pth,2.40
2022-05-13T06:06:00,pth,2.40
2022-05-13T06:08:00,pth,2.40
2022-05-13T06:10:00,pth,1.20
2022-05-13T06:12:00,pth,1.20
2022-05-13T06:14:00,pth,1.20
2022-05-13T06:15:00,pth,1.20
2022-05-13T06:17:00,pth,2.40
2022-05-13T06:19:00,pth,1.20
2022-05-13T06:20:00,pth,1.20
2022-05-13T06:22:00,pth,1.20
2022-05-13T06:24:00,pth,2.40
2022-05-13T06:25:00,pth,1.20
2022-05-13T06:27:00,pth,1.20
2022-05-13T06:29:00,pth,1.20
2022-05-13T06:30:00,pth,1.20
2022-05-13T06:32:00,pth,2.40
2022-05-13T06:34:00,pth,1.20
2022-05-13T06:36:00,pth,1.20
2022-05-13T06:37:00,pth,1.20
2022-05-13T06:39:00,pth,1.20
2022-05-13T06:41:00,pth,1.20
2022-05-13T06:43:00,pth,2.40
2022-05-13T06:45:00,pth,1.20
2022-05-13T06:46:00,pth,1.20
2022-05-13T06:48:00,pth,1.20
2022-05-13T06:49:00,pth,1.20
2022-05-13T06:51:00,pth,2.40
2022-05-13T06:54:00,pth,2.40
2022-05-13T06:56:00,pth,1.20
2022-05-13T06:57:00,pth,1.20
2022-05-13T06:59:00,pth,1.20
2022-05-13T07:00:00,pth,1.20
2022-05-13T07:02:00,pth,1.20
2022-05-13T07:04:00,pth,1.20
2022-05-13T07:06:00,pth,2.40
2022-05-13T07:07:00,pth,1.20
2022-05-13T07:09:00,pth,1.20
2022-05-13T07:11:00,pth,1.20
2022-05-13T07:13:00,pth,2.40
2022-05-13T07:16:00,pth,1.20
2022-05-13T07:18:00,pth,2.40
2022-05-13T07:20:00,pth,1.20
2022-05-13T07:22:00,pth,1.20
2022-05-13T07:23:00,pth,1.20
2022-05-13T07:25:00,pth,1.20
2022-05-13T07:27:00,pth,1.20
2022-05-13T07:28:00,pth,1.20
2022-05-13T07:31:00,pth,1.20
2022-05-13T07:32:00,pth,1.20
2022-05-13T07:35:00,pth,2.40
2022-05-13T07:38:00,pth,2.40
2022-05-13T07:40:00,pth,1.20
2022-05-13T07:42:00,pth,2.40
2022-05-13T07:44:00,pth,1.20
2022-05-13T07:46:00,pth,1.20
2022-05-13T07:48:00,pth,2.40
2022-05-13T07:50:00,pth,2.40
2022-05-13T07:52:00,pth,1.20
2022-05-13T07:53:00,pth,1.20
2022-05-13T07:55:00,pth,1.20
2022-05-13T07:57:00,pth,2.40
2022-05-13T07:59:00,pth,1.20
2022-05-13T08:01:00,pth,2.40
2022-05-13T08:04:00,pth,2.40
2022-05-13T08:05:00,pth,1.20
2022-05-13T08:06:00,pth,1.20
2022-05-13T08:08:00,pth,1.20
2022-05-13T08:10:00,pth,1.20
2022-05-13T08:12:00,pth,2.40
2022-05-13T08:14:00,pth,1.20
2022-05-13T08:15:00,pth,1.20
2022-05-13T08:17:00,pth,1.20
2022-05-13T08:19:00,pth,2.40
2022-05-13T08:22:00,pth,2.40
2022-05-13T08:24:00,pth,1.20
2022-05-13T08:26:00,pth,1.20
2022-05-13T08:28:00,pth,2.40
2022-05-13T08:30:00,pth,1.20
2022-05-13T08:32:00,pth,2.40
2022-05-13T08:34:00,pth,1.20
2022-05-13T08:36:00,pth,2.40
2022-05-13T08:38:00,pth,1.20
2022-05-13T08:39:00,pth,1.20
2022-05-13T08:40:00,pth,1.20
2022-05-13T08:42:00,pth,1.20
2022-05-13T08:43:00,pth,1.20
2022-05-13T08:45:00,pth,2.40
2022-05-13T08:47:00,pth,1.20
2022-05-13T08:49:00,pth,2.40
2022-05-13T08:52:00,pth,2.40
2022-05-13T08:54:00,pth,2.40
2022-05-13T08:56:00,pth,1.20
2022-05-13T08:58:00,pth,2.40
2022-05-13T09:00:00,pth,2.40
2022-05-13T09:02:00,pth,2.40
2022-05-13T09:04:00,pth,1.20
2022-05-13T09:06:00,pth,2.40
2022-05-13T09:08:00,pth,2.40
2022-05-13T09:11:00,pth,2.40
2022-05-13T09:12:00,pth,1.20
2022-05-13T09:14:00,pth,2.40
2022-05-13T09:16:00,pth,1.20
2022-05-13T09:18:00,pth,2.40
2022-05-13T09:20:00,pth,1.20
2022-05-13T09:21:00,pth,1.20
2022-05-13T09:23:00,pth,1.20
2022-05-13T09:24:00,pth,1.20
2022-05-13T09:26:00,pth,2.40
2022-05-13T09:28:00,pth,1.20
2022-05-13T09:30:00,pth,2.40
2022-05-13T09:32:00,pth,1.20
2022-05-13T09:33:00,pth,1.20
2022-05-13T09:35:00,pth,1.20
2022-05-13T09:37:00,pth,2.40
2022-05-13T09:39:00,pth,1.20
2022-05-13T09:40:00,pth,1.20
2022-05-13T09:42:00,pth,2.40
2022-05-13T09:43:00,pth,1.20
2022-05-13T09:44:00,pth,1.20
2022-05-13T09:46:00,pth,1.20
2022-05-13T09:48:00,pth,2.40
2022-05-13T09:50:00,pth,2.40
2022-05-13T09:53:00,pth,2.40
2022-05-13T09:54:00,pth,1.20
2022-05-13T09:56:00,pth,1.20
2022-05-13T09:57:00,pth,1.20
2022-05-13T09:59:00,pth,2.40
2022-05-13T10:00:00,pth,1.20
2022-05-13T10:02:00,pth,2.40
2022-05-13T10:03:00,pth,1.20
2022-05-13T10:05:00,pth,4.80
2022-05-13T10:07:00,pth,4.80
2022-05-13T10:09:00,pth,3.60
2022-05-13T10:11:00,pth,2.40
2022-05-13T10:14:00,pth,2.40
2022-05-13T10:16:00,pth,1.20
2022-05-13T10:17:00,pth,1.20
2022-05-13T10:18:00,pth,1.20
2022-05-13T10:21:00,pth,2.40
2022-05-13T10:22:00,pth,1.20
2022-05-13T10:24:00,pth,1.20
2022-05-13T10:26:00,pth,2.40
2022-05-13T10:28:00,pth,1.20
2022-05-13T10:29:00,pth,1.20
2022-05-13T10:31:00,pth,2.40
2022-05-13T10:33:00,pth,2.40
2022-05-13T10:35:00,pth,1.20
2022-05-13T10:37:00,pth,2.40
2022-05-13T10:39:00,pth,2.40
2022-05-13T10:40:00,pth,1.20
2022-05-13T10:42:00,pth,1.20
2022-05-13T10:44:00,pth,2.40
2022-05-13T10:46:00,pth,1.20
2022-05-13T10:48:00,pth,2.40
2022-05-13T10:50:00,pth,1.20
2022-05-13T10:52:00,pth,1.20
2022-05-13T10:54:00,pth,2.40
2022-05-13T10:57:00,pth,2.40
2022-05-13T10:58:00,pth,1.20
2022-05-13T11:00:00,pth,1.20
2022-05-13T11:02:00,pth,2.40
2022-05-13T11:04:00,pth,1.20
2022-05-13T11:06:00,pth,2.40
2022-05-13T11:07:00,pth,1.20
2022-05-13T11:09:00,pth,2.40
2022-05-13T11:10:00,pth,1.20
2022-05-13T11:12:00,pth,1.20
2022-05-13T11:14:00,pth,2.40
2022-05-13T11:16:00,pth,1.20
2022-05-13T11:18:00,pth,2.40
2022-05-13T11:20:00,pth,2.40
2022-05-13T11:21:00,pth,1.20
2022-05-13T11:23:00,pth,2.40
2022-05-13T11:25:00,pth,2.40
2022-05-13T11:26:00,pth,1.20
2022-05-13T11:28:00,pth,1.20
2022-05-13T11:30:00,pth,2.40
2022-05-13T11:32:00,pth,2.40
2022-05-13T11:33:00,pth,1.20
2022-05-13T11:35:00,pth,1.20
2022-05-13T11:37:00,pth,2.40
2022-05-13T11:39:00,pth,2.40
2022-05-13T11:41:00,pth,1.20
2022-05-13T11:42:00,pth,1.20
2022-05-13T11:43:00,pth,1.20
2022-05-13T11:45:00,pth,1.20
2022-05-13T11:47:00,pth,1.20
2022-05-13T11:48:00,pth,1.20
2022-05-13T11:49:00,pth,1.20
2022-05-13T11:51:00,pth,1.20
2022-05-13T11:53:00,pth,2.40
2022-05-13T11:56:00,pth,2.40
2022-05-13T11:57:00,pth,1.20
2022-05-13T11:59:00,pth,1.20
2022-05-13T12:01:00,pth,2.40
2022-05-13T12:03:00,pth,2.40
2022-05-13T12:04:00,pth,1.20
2022-05-13T12:06:00,pth,2.40
2022-05-13T12:08:00,pth,1.20
2022-05-13T12:09:00,pth,1.20
2022-05-13T12:11:00,pth,1.20
2022-05-13T12:12:00,pth,1.20
2022-05-13T12:15:00,pth,2.40
2022-05-13T12:17:00,pth,2.40
2022-05-13T12:19:00,pth,1.20
2022-05-13T12:21:00,pth,2.40
2022-05-13T12:22:00,pth,1.20
2022-05-13T12:24:00,pth,1.20
2022-05-13T12:26:00,pth,2.40
2022-05-13T12:28:00,pth,2.40
2022-05-13T12:30:00,pth,1.20
2022-05-13T12:31:00,pth,1.20
2022-05-13T12:34:00,pth,2.40
2022-05-13T12:36:00,pth,2.40
2022-05-13T12:38:00,pth,1.20
2022-05-13T12:40:00,pth,2.40
2022-05-13T12:42:00,pth,2.40
2022-05-13T12:43:00,pth,1.20
2022-05-13T12:45:00,pth,1.20
2022-05-13T12:47:00,pth,2.40
2022-05-13T12:50:00,pth,2.40
2022-05-13T12:51:00,pth,1.20
2022-05-13T12:54:00,pth,2.40
2022-05-13T12:55:00,pth,1.20
2022-05-13T12:57:00,pth,2.40
2022-05-13T12:58:00,pth,1.20
2022-05-13T13:00:00,pth,2.40
2022-05-13T13:01:00,pth,1.20
2022-05-13T13:03:00,pth,2.40
2022-05-13T13:04:00,pth,1.20
2022-05-13T13:06:00,pth,2.40
2022-05-13T13:07:00,pth,1.20
2022-05-13T13:09:00,pth,2.40
2022-05-13T13:11:00,pth,1.20
2022-05-13T13:13:00,pth,2.40
2022-05-13T13:15:00,pth,2.40
2022-05-13T13:16:00,pth,1.20
2022-05-13T13:18:00,pth,2.40
2022-05-13T13:20:00,pth,1.20
2022-05-13T13:21:00,pth,1.20
2022-05-13T13:23:00,pth,2.40
2022-05-13T13:25:00,pth,2.40
2022-05-13T13:27:00,pth,2.40
2022-05-13T13:29:00,pth,2.40
2022-05-13T13:30:00,pth,1.20
2022-05-13T13:31:00,pth,1.20
2022-05-13T13:33:00,pth,1.20
2022-05-13T13:35:00,pth,2.40
2022-05-13T13:37:00,pth,2.40
2022-05-13T13:39:00,pth,1.20
2022-05-13T13:40:00,pth,1.20
2022-05-13T13:42:00,pth,2.40
2022-05-13T13:44:00,pth,2.40
2022-05-13T13:46:00,pth,2.40
2022-05-13T13:48:00,pth,1.20
2022-05-13T13:50:00,pth,2.40
2022-05-13T13:52:00,pth,1.20
2022-05-13T13:53:00,pth,1.20
2022-05-13T13:55:00,pth,1.20
2022-05-13T13:57:00,pth,2.40
2022-05-13T13:59:00,pth,1.20
2022-05-13T14:01:00,pth,1.20
2022-05-13T14:03:00,pth,1.20
2022-05-13T14:05:00,pth,2.40
2022-05-13T14:07:00,pth,1.20
2022-05-13T14:09:00,pth,1.20
2022-05-13T14:11:00,pth,1.20
2022-05-13T14:13:00,pth,2.40
2022-05-13T14:14:00,pth,1.20
2022-05-13T14:16:00,pth,1.20
2022-05-13T14:18:00,pth,1.20
2022-05-13T14:20:00,pth,1.20
2022-05-13T14:22:00,pth,1.20
2022-05-13T14:23:00,pth,1.20
2022-05-13T14:24:00,pth,1.20
2022-05-13T14:26:00,pth,1.20
2022-05-13T14:28:00,pth,1.20
2022-05-13T14:30:00,pth,2.40
2022-05-13T14:32:00,pth,1.20
2022-05-13T14:34:00,pth,1.20
2022-05-13T14:36:00,pth,2.40
2022-05-13T14:37:00,pth,1.20
2022-05-13T14:39:00,pth,1.20
2022-05-13T14:41:00,pth,2.40
2022-05-13T14:43:00,pth,2.40
2022-05-13T14:45:00,pth,2.40
2022-05-13T14:47:00,pth,2.40
2022-05-13T14:48:00,pth,1.20
2022-05-13T14:49:00,pth,1.20
2022-05-13T14:50:00,pth,2.40
2022-05-13T14:52:00,pth,1.20
2022-05-13T14:54:00,pth,2.40
2022-05-13T14:55:00,pth,1.20
2022-05-13T14:57:00,pth,2.40
2022-05-13T14:59:00,pth,2.40
2022-05-13T15:01:00,pth,2.40
2022-05-13T15:03:00,pth,2.40
2022-05-13T15:05:00,pth,2.40
2022-05-13T15:07:00,pth,2.40
2022-05-13T15:09:00,pth,2.40
2022-05-13T15:11:00,pth,2.40
2022-05-13T15:12:00,pth,2.40
2022-05-13T15:14:00,pth,1.20
2022-05-13T15:16:00,pth,2.40
2022-05-13T15:18:00,pth,1.20
2022-05-13T15:19:00,pth,1.20
2022-05-13T15:20:00,pth,1.20
2022-05-13T15:22:00,pth,1.20
2022-05-13T15:24:00,pth,2.40
2022-05-13T15:26:00,pth,1.20
2022-05-13T15:28:00,pth,2.40
2022-05-13T15:30:00,pth,3.60
2022-05-13T15:32:00,pth,1.20
2022-05-13T15:34:00,pth,2.40
2022-05-13T15:36:00,pth,2.40
2022-05-13T15:37:00,pth,1.20
2022-05-13T15:39:00,pth,2.40
2022-05-13T15:40:00,pth,1.20
2022-05-13T15:42:00,pth,2.40
2022-05-13T15:44:00,pth,1.20
2022-05-13T15:46:00,pth,2.40
2022-05-13T15:47:00,pth,1.20
2022-05-13T15:49:00,pth,2.40
2022-05-13T15:50:00,pth,2.40
2022-05-13T15:52:00,pth,2.40
2022-05-13T15:53:00,pth,1.20
2022-05-13T15:55:00,pth,3.60
2022-05-13T15:56:00,pth,1.20
2022-05-13T15:58:00,pth,2.40
2022-05-13T15:59:00,pth,1.20
2022-05-13T16:01:00,pth,3.60
2022-05-13T16:02:00,pth,1.20
2022-05-13T16:03:00,pth,1.20
2022-05-13T16:05:00,pth,8.40
2022-05-13T16:07:00,pth,14.40
2022-05-13T16:08:00,pth,6.00
2022-05-13T16:10:00,pth,14.40
2022-05-13T16:11:00,pth,6.00
2022-05-13T16:13:00,pth,14.40
2022-05-13T16:15:00,pth,13.20
2022-05-13T16:16:00,pth,6.00
2022-05-13T16:17:00,pth,7.20
2022-05-13T16:19:00,pth,14.40
2022-05-13T16:21:00,pth,13.20
2022-05-13T16:22:00,pth,7.20
2022-05-13T16:23:00,pth,6.00
2022-05-13T16:25:00,pth,13.20
2022-05-13T16:26:00,pth,7.20
2022-05-13T16:28:00,pth,13.20
2022-05-13T16:29:00,pth,7.20
2022-05-13T16:31:00,pth,13.20
2022-05-13T16:33:00,pth,13.20
2022-05-13T16:34:00,pth,7.20
2022-05-13T16:36:00,pth,13.20
2022-05-13T16:38:00,pth,13.20
2022-05-13T16:40:00,pth,13.20
2022-05-13T16:42:00,pth,12.00
2022-05-13T16:43:00,pth,7.20
2022-05-13T16:44:00,pth,7.20
2022-05-13T16:46:00,pth,13.20
2022-05-13T16:47:00,pth,7.20
2022-05-13T16:48:00,pth,6.00
2022-05-13T16:50:00,pth,9.60
2022-05-13T16:52:00,pth,6.00
2022-05-13T16:54:00,pth,13.20
2022-05-13T16:56:00,pth,8.40
2022-05-13T16:57:00,pth,1.20
2022-05-13T16:59:00,pth,9.60
2022-05-13T17:01:00,pth,10.80
2022-05-13T17:03:00,pth,3.60
2022-05-13T17:05:00,pth,1.20
2022-05-13T17:07:00,pth,2.40
2022-05-13T17:09:00,pth,1.20
2022-05-13T17:11:00,pth,2.40
2022-05-13T17:13:00,pth,1.20
2022-05-13T17:14:00,pth,1.20
2022-05-13T17:16:00,pth,2.40
2022-05-13T17:17:00,pth,1.20
2022-05-13T17:19:00,pth,1.20
2022-05-13T17:20:00,pth,1.20
2022-05-13T17:22:00,pth,2.40
2022-05-13T17:23:00,pth,1.20
2022-05-13T17:25:00,pth,2.40
2022-05-13T17:27:00,pth,2.40
2022-05-13T17:28:00,pth,1.20
2022-05-13T17:30:00,pth,2.40
2022-05-13T17:31:00,pth,1.20
2022-05-13T17:33:00,pth,2.40
2022-05-13T17:35:00,pth,1.20
2022-05-13T17:36:00,pth,1.20
2022-05-13T17:38:00,pth,2.40
2022-05-13T17:40:00,pth,2.40
2022-05-13T17:42:00,pth,1.20
2022-05-13T17:43:00,pth,1.20
2022-05-13T17:46:00,pth,2.40
2022-05-13T17:48:00,pth,1.20
2022-05-13T17:50:00,pth,1.20
2022-05-13T17:51:00,pth,1.20
2022-05-13T17:53:00,pth,1.20
2022-05-13T17:55:00,pth,2.40
2022-05-13T17:57:00,pth,1.20
2022-05-13T17:58:00,pth,1.20
2022-05-13T18:00:00,pth,2.40
2022-05-13T18:02:00,pth,1.20
2022-05-13T18:04:00,pth,2.40
2022-05-13T18:05:00,pth,1.20
2022-05-13T18:06:00,pth,1.20
2022-05-13T18:08:00,pth,1.20
2022-05-13T18:10:00,pth,2.40
2022-05-13T18:12:00,pth,1.20
2022-05-13T18:13:00,pth,1.20
2022-05-13T18:15:00,pth,1.20
2022-05-13T18:17:00,pth,1.20
2022-05-13T18:19:00,pth,2.40
2022-05-13T18:21:00,pth,1.20
2022-05-13T18:22:00,pth,1.20
2022-05-13T18:25:00,pth,2.40
2022-05-13T18:27:00,pth,1.20
2022-05-13T18:29:00,pth,2.40
2022-05-13T18:31:00,pth,1.20
2022-05-13T18:33:00,pth,2.40
2022-05-13T18:34:00,pth,1.20
2022-05-13T18:36:00,pth,1.20
2022-05-13T18:38:00,pth,2.40
2022-05-13T18:40:00,pth,2.40
2022-05-13T18:42:00,pth,2.40
2022-05-13T18:44:00,pth,1.20
2022-05-13T18:46:00,pth,2.40
2022-05-13T18:48:00,pth,2.40
2022-05-13T18:50:00,pth,1.20
2022-05-13T18:52:00,pth,2.40
2022-05-13T18:55:00,pth,2.40
2022-05-13T18:57:00,pth,1.20
2022-05-13T18:58:00,pth,1.20
2022-05-13T19:00:00,pth,1.20
2022-05-13T19:02:00,pth,2.40
2022-05-13T19:03:00,pth,1.20
2022-05-13T19:06:00,pth,2.40
2022-05-13T19:07:00,pth,1.20
2022-05-13T19:09:00,pth,2.40
2022-05-13T19:11:00,pth,1.20
2022-05-13T19:12:00,pth,1.20
2022-05-13T19:14:00,pth,1.20
2022-05-13T19:16:00,pth,2.40
2022-05-13T19:18:00,pth,1.20
2022-05-13T19:20:00,pth,2.40
2022-05-13T19:22:00,pth,1.20
2022-05-13T19:23:00,pth,1.20
2022-05-13T19:25:00,pth,1.20
2022-05-13T19:26:00,pth,1.20
2022-05-13T19:28:00,pth,1.20
2022-05-13T19:29:00,pth,1.20
2022-05-13T19:32:00,pth,2.40
2022-05-13T19:33:00,pth,1.20
2022-05-13T19:35:00,pth,1.20
2022-05-13T19:37:00,pth,2.40
2022-05-13T19:39:00,pth,1.20
2022-05-13T19:41:00,pth,1.20
2022-05-13T19:43:00,pth,2.40
2022-05-13T19:45:00,pth,1.20
2022-05-13T19:46:00,pth,1.20
2022-05-13T19:48:00,pth,4.80
2022-05-13T19:50:00,pth,3.60
2022-05-13T19:52:00,pth,2.40
2022-05-13T19:53:00,pth,1.20
2022-05-13T19:55:00,pth,1.20
2022-05-13T19:56:00,pth,1.20
2022-05-13T19:58:00,pth,2.40
2022-05-13T20:00:00,pth,1.20
2022-05-13T20:02:00,pth,2.40
2022-05-13T20:05:00,pth,2.40
2022-05-13T20:06:00,pth,1.20
2022-05-13T20:08:00,pth,1.20
2022-05-13T20:10:00,pth,1.20
2022-05-13T20:12:00,pth,2.40
2022-05-13T20:14:00,pth,1.20
2022-05-13T20:15:00,pth,1.20
2022-05-13T20:17:00,pth,2.40
2022-05-13T20:19:00,pth,2.40
2022-05-13T20:21:00,pth,1.20
2022-05-13T20:23:00,pth,2.40
2022-05-13T20:25:00,pth,2.40
2022-05-13T20:27:00,pth,2.40
2022-05-13T20:29:00,pth,2.40
2022-05-13T20:31:00,pth,1.20
2022-05-13T20:33:00,pth,3.60
2022-05-13T20:35:00,pth,2.40
2022-05-13T20:37:00,pth,2.40
2022-05-13T20:39:00,pth,2.40
2022-05-13T20:40:00,pth,2.40
2022-05-13T20:42:00,pth,2.40
2022-05-13T20:43:00,pth,1.20
2022-05-13T20:45:00,pth,2.40
2022-05-13T20:47:00,pth,2.40
2022-05-13T20:49:00,pth,2.40
2022-05-13T20:50:00,pth,1.20
2022-05-13T20:52:00,pth,2.40
2022-05-13T20:53:00,pth,1.20
2022-05-13T20:55:00,pth,3.60
2022-05-13T20:57:00,pth,2.40
2022-05-13T20:58:00,pth,1.20
2022-05-13T21:00:00,pth,2.40
2022-05-13T21:02:00,pth,2.40
2022-05-13T21:04:00,pth,3.60
2022-05-13T21:06:00,pth,2.40
2022-05-13T21:07:00,pth,1.20
2022-05-13T21:08:00,pth,1.20
2022-05-13T21:09:00,pth,1.20
2022-05-13T21:11:00,pth,2.40
2022-05-13T21:13:00,pth,2.40
2022-05-13T21:15:00,pth,3.60
2022-05-13T21:16:00,pth,1.20
2022-05-13T21:18:00,pth,3.60
2022-05-13T21:20:00,pth,2.40
2022-05-13T21:22:00,pth,2.40
2022-05-13T21:24:00,pth,3.60
2022-05-13T21:25:00,pth,2.40
2022-05-13T21:27:00,pth,2.40
2022-05-13T21:29:00,pth,3.60
2022-05-13T21:31:00,pth,3.60
2022-05-13T21:33:00,pth,3.60
2022-05-13T21:35:00,pth,3.60
2022-05-13T21:37:00,pth,4.80
2022-05-13T21:38:00,pth,1.20
2022-05-13T21:40:00,pth,2.40
2022-05-13T21:42:00,pth,3.60
2022-05-13T21:44:00,pth,4.80
2022-05-13T21:46:00,pth,3.60
2022-05-13T21:47:00,pth,1.20
2022-05-13T21:49:00,pth,4.80
2022-05-13T21:51:00,pth,14.40
2022-05-13T21:53:00,pth,13.20
2022-05-13T21:55:00,pth,14.40
2022-05-13T21:57:00,pth,14.40
2022-05-13T21:58:00,pth,7.20
2022-05-13T22:00:00,pth,13.20
2022-05-13T22:02:00,pth,15.60
2022-05-13T22:04:00,pth,13.20
2022-05-13T22:05:00,pth,7.20
2022-05-13T22:07:00,pth,15.60
2022-05-13T22:08:00,pth,7.20
2022-05-13T22:10:00,pth,14.40
2022-05-13T22:12:00,pth,14.40
2022-05-13T22:14:00,pth,16.80
2022-05-13T22:16:00,pth,18.00
2022-05-13T22:18:00,pth,15.60
2022-05-13T22:20:00,pth,14.40
2022-05-13T22:22:00,pth,14.40
2022-05-13T22:23:00,pth,7.20
2022-05-13T22:25:00,pth,14.40
2022-05-13T22:26:00,pth,8.40
2022-05-13T22:28:00,pth,14.40
2022-05-13T22:30:00,pth,14.40
2022-05-13T22:32:00,pth,6.00
2022-05-13T22:34:00,pth,14.40
2022-05-13T22:36:00,pth,13.20
2022-05-13T22:37:00,pth,7.20
2022-05-13T22:39:00,pth,7.20
2022-05-13T22:41:00,pth,12.00
2022-05-13T22:42:00,pth,7.20
2022-05-13T22:44:00,pth,12.00
2022-05-13T22:45:00,pth,1.20
2022-05-13T22:46:00,pth,4.80
2022-05-13T22:48:00,pth,12.00
2022-05-13T22:49:00,pth,2.40
2022-05-13T22:51:00,pth,3.60
2022-05-13T22:53:00,pth,3.60
2022-05-13T22:55:00,pth,3.60
2022-05-13T22:57:00,pth,3.60
2022-05-13T22:58:00,pth,1.20
2022-05-13T22:59:00,pth,1.20
2022-05-13T23:01:00,pth,3.60
2022-05-13T23:02:00,pth,1.20
2022-05-13T23:04:00,pth,3.60
